Vorticity
4 4 6 6 4 6 4 5 3 3 3 2 3 3 3 4 4 3 2 7 3 4 4 6 6 6 6 6 7 6 5 5 5 5 6 6 6 7 7 7 8 5 3 3 2 2 3 3 4
4 4 5 7 6 3 4 4 3 3 3 3 3 3 3 3 4 4 4 6 5 5 5 5 7 6 6 6 5 8 8 7 7 7 5 4 5 6 7 7 7 8 7 5 4 3 4 5 5
5 5 4 4 7 6 8 7 6 7 7 6 5 5 5 5 5 4 5 6 5 7 8 8 6 4 5 5 6 5 5 4 5 6 6 7 7 6 6 6 8 8 9 8 8 9 9 8 8
8 7 6 5 5 7 7 6 6 6 6 6 7 5 6 6 7 6 6 5 5 4 5 4 5 5 5 4 6 3 4 4 4 4 6 7 7 7 7 4 3 4 5 8 8 6 6 5 6
8 7 7 4 6 8 5 5 4 4 4 3 4 5 4 4 5 6 6 4 2 3 4 3 3 3 3 3 3 4 3 4 3 3 3 3 4 5 6 9 10 9 8 6 6 6 7 7 8
5 6 6 4 7 8 4 7 4 2 2 3 3 2 2 3 3 3 4 4 3 2 2 3 3 3 4 4 4 5 6 6 6 6 7 6 5 5 4 5 7 8 9 6 5 7 7 6 7
8 9 6 8 6 5 2 3 3 3 2 3 3 3 3 3 3 2 2 2 2 3 3 3 3 5 5 6 6 6 6 6 6 6 5 6 5 5 6 7 6 4 5 7 8 7 7 7 8
6 8 7 7 5 3 4 3 3 3 3 2 3 4 4 4 4 5 4 5 6 5 4 5 4 4 5 5 5 5 5 6 6 6 8 7 5 6 5 4 4 4 6 4 5 7 7 6 6
5 9 6 6 4 2 3 2 4 3 4 2 6 5 9 11 10 10 10 11 11 10 8 5 5 5 4 4 5 5 6 6 6 6 5 6 6 6 6 6 6 4 4 4 6 5 4 4 4
6 8 5 6 2 3 3 2 1 3 2 4 4 7 12 10 10 9 8 9 8 8 8 8 8 6 5 6 6 6 5 7 4 3 6 6 7 7 5 5 6 6 7 6 8 6 7 5 6
9 7 5 5 2 4 5 2 3 3 3 5 5 8 8 7 5 8 6 5 5 6 6 5 5 7 8 7 7 6 5 4 6 4 6 6 5 7 7 6 7 6 6 5 6 6 5 7 6
7 5 3 3 4 5 6 3 3 3 3 6 6 8 7 7 5 6 7 6 7 4 6 7 8 8 6 7 7 7 7 6 5 4 5 6 7 6 6 7 6 6 6 6 6 6 8 6 7
7 5 2 5 6 5 7 6 5 3 3 4 8 7 7 6 5 5 6 8 9 6 6 7 5 4 5 4 4 4 5 4 4 5 5 6 5 6 6 6 7 7 7 6 6 7 5 6 7
8 17 11 13 9 7 7 6 5 3 5 4 6 7 5 6 4 2 3 4 5 5 4 6 7 7 7 6 5 4 4 3 4 5 5 7 6 6 7 7 8 8 8 9 9 8 7 6 5
2 5 5 10 13 11 12 13 8 10 6 6 6 5 4 5 5 3 2 2 3 4 5 7 7 6 6 7 9 6 5 5 4 5 5 5 5 6 7 7 8 6 6 9 9 9 8 7 8
9 6 2 4 6 9 10 12 13 14 10 6 6 5 6 6 7 6 7 6 6 7 3 7 6 5 5 6 6 6 6 4 5 5 5 5 4 5 5 5 6 6 6 5 6 8 7 7 8
-4 15 7 4 5 5 11 10 10 11 9 4 2 3 5 5 6 4 7 6 6 6 6 4 6 4 4 4 5 5 5 5 7 7 6 6 3 4 4 5 5 6 5 3 5 7 7 8 7
16 -6 -13 6 6 5 7 6 11 9 8 5 4 3 4 4 2 5 5 6 6 8 7 6 8 6 4 4 3 3 4 5 5 6 5 5 5 4 4 4 5 4 5 4 4 3 4 6 8
-0 7 8 0 6 7 5 5 10 6 6 5 5 4 3 3 4 4 4 4 3 2 8 8 7 4 7 7 7 5 6 6 7 6 6 5 5 5 3 5 4 5 4 5 5 6 3 3 3
8 3 6 2 3 6 10 7 2 8 7 7 6 5 3 5 5 6 7 7 6 5 4 9 8 7 6 7 8 9 10 7 7 5 9 5 6 5 5 6 5 4 5 5 5 6 5 5 6
8 8 7 5 7 4 7 6 8 10 10 9 7 6 8 8 8 8 8 8 10 9 8 8 12 13 9 5 3 4 6 10 11 9 11 10 8 7 5 5 6 6 8 5 4 4 2 3 3
8 8 9 9 8 5 7 5 7 8 7 10 10 9 10 9 9 7 8 9 9 9 10 9 9 10 10 10 10 11 6 6 10 12 9 6 6 6 7 7 8 7 6 6 2 4 4 3 1
8 6 5 8 10 8 9 4 8 8 8 11 13 11 10 11 10 10 8 6 7 8 8 9 9 9 10 11 11 5 9 14 10 8 10 9 8 5 8 7 8 8 8 5 4 2 3 6 5
26 16 6 2 4 5 9 10 14 15 12 14 13 11 11 11 10 11 11 12 12 12 11 11 12 13 13 13 12 13 12 8 8 11 11 7 9 7 6 5 6 8 9 7 5 4 3 6 5
11 19 16 18 16 13 15 15 10 17 15 11 10 9 9 9 10 10 10 9 9 8 8 8 7 7 7 6 7 8 8 8 11 9 8 10 11 7 8 4 4 7 7 7 6 5 4 4 3
-17 8 12 12 11 6 14 14 13 11 11 10 11 13 14 13 10 8 7 7 7 7 8 8 7 6 6 6 5 5 4 5 6 5 7 10 8 8 12 7 4 1 6 6 5 5 6 7 6
7 9 9 8 9 8 14 11 9 7 6 9 12 9 6 7 7 7 7 8 7 6 5 6 9 12 15 14 13 12 12 11 8 4 5 3 3 6 6 8 18 -2 9 7 6 6 6 3 1
12 10 9 11 11 11 8 11 9 8 7 7 6 6 8 8 7 6 7 8 13 16 16 12 12 8 9 12 13 15 16 17 16 15 12 8 9 5 6 3 3 13 7 6 9 8 8 6 7
7 6 3 5 7 13 13 11 8 7 5 6 7 6 8 6 7 10 15 3 16 15 12 8 6 13 15 17 21 22 22 20 16 15 15 15 13 9 10 5 8 6 4 10 9 5 6 10 6
7 11 12 15 17 12 11 6 6 7 7 7 6 6 6 9 14 14 9 17 6 10 8 15 14 23 16 17 12 20 18 12 31 30 24 16 14 14 11 10 11 9 9 11 10 12 10 4 3
Height
5817 5822 5827 5831 5838 5840 5845 5850 5853 5854 5857 5861 5864 5866 5868 5871 5876 5879 5879 5880 5881 5883 5884 5885 5885 5885 5886 5887 5887 5887 5887 5887 5887 5887 5887 5888 5888 5888 5888 5887 5887 5887 5887 5887 5887 5887 5887 5887 5886
5811 5816 5821 5826 5831 5837 5843 5844 5847 5850 5854 5857 5859 5861 5864 5868 5871 5874 5875 5877 5879 5880 5880 5881 5882 5882 5884 5883 5883 5883 5883 5883 5883 5883 5883 5883 5883 5883 5883 5883 5883 5883 5883 5883 5883 5883 5883 5883 5883
5804 5810 5815 5819 5826 5835 5839 5839 5841 5847 5850 5851 5855 5858 5861 5864 5867 5871 5872 5875 5875 5877 5878 5878 5879 5879 5880 5880 5880 5880 5880 5880 5880 5881 5881 5881 5880 5880 5880 5880 5880 5879 5879 5879 5879 5880 5879 5879 5879
5798 5803 5809 5813 5825 5831 5834 5834 5838 5843 5845 5847 5852 5855 5858 5860 5864 5867 5868 5871 5872 5873 5874 5875 5876 5877 5877 5878 5878 5878 5877 5878 5878 5878 5878 5879 5878 5878 5877 5877 5876 5876 5876 5876 5876 5876 5876 5876 5876
5790 5796 5801 5808 5821 5827 5827 5829 5834 5838 5840 5844 5848 5851 5854 5857 5860 5863 5865 5866 5868 5870 5871 5872 5873 5873 5874 5875 5876 5876 5876 5875 5876 5876 5876 5875 5875 5875 5874 5873 5873 5873 5872 5873 5873 5873 5872 5872 5871
5782 5789 5795 5805 5818 5821 5822 5823 5829 5833 5835 5839 5843 5847 5851 5854 5856 5859 5861 5863 5864 5865 5867 5868 5869 5869 5871 5871 5871 5872 5872 5872 5872 5872 5872 5872 5872 5872 5871 5871 5870 5869 5869 5869 5869 5868 5868 5868 5867
5776 5784 5791 5803 5810 5814 5817 5817 5822 5826 5829 5833 5838 5843 5847 5850 5851 5853 5855 5857 5859 5860 5860 5862 5863 5864 5865 5867 5868 5867 5868 5868 5868 5868 5868 5868 5868 5868 5868 5868 5867 5867 5867 5866 5865 5865 5864 5864 5864
5769 5776 5782 5795 5803 5810 5811 5812 5816 5821 5826 5829 5834 5838 5842 5844 5845 5848 5850 5852 5854 5855 5855 5856 5858 5859 5860 5862 5863 5863 5863 5864 5864 5864 5864 5864 5864 5864 5864 5864 5863 5863 5863 5862 5862 5861 5861 5860 5860
5763 5769 5778 5791 5798 5805 5807 5809 5811 5817 5822 5825 5829 5833 5836 5837 5839 5842 5845 5846 5848 5849 5850 5851 5853 5853 5854 5856 5857 5858 5859 5859 5859 5860 5860 5859 5859 5859 5859 5859 5859 5859 5859 5858 5858 5857 5857 5857 5856
5754 5763 5776 5787 5790 5797 5801 5803 5805 5811 5816 5820 5823 5826 5830 5832 5833 5837 5839 5840 5841 5842 5843 5846 5848 5849 5851 5851 5852 5852 5853 5853 5853 5854 5855 5855 5854 5854 5854 5854 5854 5854 5854 5854 5853 5853 5852 5852 5852
5750 5760 5768 5777 5782 5789 5795 5797 5799 5804 5810 5814 5816 5820 5824 5827 5830 5832 5834 5836 5836 5838 5840 5842 5843 5845 5846 5846 5846 5846 5847 5847 5848 5848 5848 5849 5848 5849 5849 5849 5849 5849 5848 5849 5848 5848 5847 5847 5846
5744 5753 5759 5768 5774 5781 5787 5790 5793 5797 5805 5807 5810 5815 5819 5822 5825 5827 5829 5830 5833 5834 5836 5837 5838 5839 5840 5840 5841 5841 5841 5841 5842 5841 5842 5843 5843 5843 5844 5844 5843 5843 5842 5842 5842 5842 5842 5841 5840
5738 5746 5753 5760 5766 5773 5780 5784 5787 5793 5796 5801 5805 5809 5813 5816 5819 5822 5823 5825 5827 5830 5830 5831 5831 5832 5833 5834 5835 5836 5836 5835 5835 5835 5837 5838 5838 5838 5838 5839 5837 5836 5836 5836 5836 5836 5835 5835 5835
5731 5737 5745 5752 5759 5766 5772 5778 5780 5789 5788 5793 5798 5803 5806 5810 5813 5816 5819 5819 5822 5823 5824 5824 5824 5825 5826 5829 5831 5830 5829 5829 5829 5830 5831 5832 5832 5833 5833 5833 5832 5830 5830 5830 5829 5829 5829 5829 5829
5723 5730 5737 5746 5752 5758 5765 5771 5777 5779 5781 5786 5791 5795 5798 5804 5806 5811 5813 5815 5817 5818 5818 5818 5818 5818 5820 5821 5822 5823 5824 5823 5823 5824 5825 5826 5826 5826 5826 5826 5826 5824 5824 5824 5823 5822 5823 5823 5823
5717 5724 5732 5741 5747 5752 5757 5766 5768 5771 5776 5780 5784 5789 5792 5796 5800 5805 5808 5810 5810 5811 5811 5811 5811 5812 5812 5813 5814 5815 5816 5817 5817 5818 5818 5819 5819 5819 5819 5819 5819 5818 5818 5818 5817 5816 5816 5816 5816
5711 5722 5729 5736 5741 5746 5751 5759 5762 5765 5770 5776 5779 5782 5785 5789 5790 5794 5797 5799 5800 5802 5804 5804 5804 5805 5804 5805 5806 5806 5808 5809 5810 5811 5811 5811 5812 5811 5811 5812 5811 5811 5811 5811 5810 5810 5810 5809 5809
5709 5717 5724 5729 5735 5740 5746 5752 5757 5760 5765 5770 5773 5775 5777 5781 5783 5783 5785 5789 5792 5793 5795 5797 5798 5798 5797 5797 5797 5798 5799 5800 5801 5802 5803 5803 5803 5803 5803 5804 5803 5803 5804 5804 5804 5803 5803 5802 5802
5704 5709 5717 5721 5728 5734 5740 5745 5753 5755 5759 5763 5765 5768 5770 5772 5774 5776 5778 5780 5782 5785 5786 5788 5790 5791 5791 5790 5789 5789 5791 5791 5791 5791 5793 5793 5793 5795 5795 5795 5795 5795 5795 5795 5796 5797 5796 5795 5795
5697 5704 5711 5717 5723 5729 5734 5740 5747 5748 5751 5753 5758 5762 5764 5765 5765 5768 5771 5773 5775 5776 5776 5777 5779 5780 5781 5781 5781 5781 5781 5781 5781 5781 5782 5782 5783 5785 5785 5785 5785 5785 5786 5786 5787 5788 5788 5787 5787
5691 5699 5705 5712 5717 5722 5728 5733 5737 5740 5742 5747 5751 5755 5756 5758 5759 5760 5761 5763 5764 5765 5766 5768 5768 5769 5769 5770 5770 5770 5769 5770 5771 5772 5772 5772 5771 5771 5772 5773 5774 5776 5776 5776 5776 5778 5779 5779 5778
5687 5694 5699 5705 5711 5716 5722 5726 5730 5731 5736 5741 5745 5747 5748 5751 5752 5751 5752 5752 5754 5754 5755 5756 5756 5757 5757 5757 5759 5759 5759 5759 5760 5760 5759 5758 5758 5759 5760 5762 5763 5765 5766 5767 5768 5768 5769 5769 5769
5682 5687 5693 5699 5704 5710 5714 5718 5723 5725 5727 5733 5737 5739 5740 5741 5742 5743 5743 5743 5744 5744 5745 5745 5745 5745 5745 5745 5746 5746 5747 5748 5747 5747 5747 5747 5747 5747 5749 5750 5751 5753 5755 5756 5757 5757 5758 5758 5758
5676 5682 5687 5693 5698 5704 5708 5712 5714 5718 5720 5724 5727 5730 5732 5732 5733 5734 5735 5735 5735 5735 5735 5734 5734 5733 5733 5733 5732 5732 5732 5731 5733 5734 5734 5733 5734 5735 5736 5737 5738 5739 5742 5744 5745 5746 5747 5748 5748
5673 5677 5682 5689 5693 5698 5701 5705 5708 5711 5714 5716 5719 5721 5723 5725 5725 5727 5727 5726 5726 5725 5725 5723 5722 5721 5720 5719 5718 5718 5717 5716 5718 5718 5719 5720 5721 5722 5723 5723 5724 5726 5728 5730 5732 5733 5734 5735 5736
5671 5675 5679 5682 5688 5693 5696 5698 5702 5704 5707 5710 5712 5714 5717 5718 5718 5718 5718 5718 5717 5716 5715 5713 5712 5710 5707 5706 5704 5703 5702 5701 5702 5702 5703 5704 5706 5707 5708 5710 5710 5712 5714 5716 5719 5720 5722 5722 5723
5668 5672 5676 5679 5684 5687 5691 5694 5697 5699 5702 5704 5707 5709 5710 5710 5711 5711 5711 5711 5710 5708 5705 5703 5701 5697 5694 5692 5689 5687 5686 5685 5683 5682 5682 5684 5687 5691 5692 5696 5699 5701 5703 5704 5705 5708 5708 5709 5709
5665 5670 5673 5676 5680 5683 5686 5689 5692 5695 5697 5699 5701 5702 5704 5705 5705 5704 5703 5702 5700 5698 5696 5693 5690 5686 5681 5676 5673 5669 5665 5663 5662 5662 5662 5664 5667 5670 5674 5680 5684 5688 5691 5692 5694 5697 5697 5696 5697
5663 5665 5668 5672 5676 5679 5683 5686 5688 5689 5692 5694 5695 5697 5697 5697 5696 5696 5696 5694 5692 5688 5686 5681 5678 5673 5668 5662 5656 5650 5645 5642 5641 5639 5640 5642 5646 5651 5656 5660 5667 5672 5676 5679 5683 5684 5685 5686 5686
5659 5662 5665 5668 5674 5676 5679 5683 5683 5685 5687 5688 5688 5688 5689 5689 5689 5689 5689 5686 5683 5679 5675 5671 5665 5659 5653 5646 5638 5631 5625 5620 5618 5616 5620 5621 5625 5630 5637 5643 5648 5655 5661 5664 5668 5672 5674 5674 5674